• Join FlightAware (Why Join?)
  • Login
  • US Flag 
08:36PM EST


 

Airport Tracker/Info


-or-


 

Live Flight TrackerFlight Track Log ✈ EJA396 ✈ 30-Apr-2013 ✈ 6S5 - KCOD

Flight Track Log - Related Links

Times and Time Zones

All times are in EDT time to prevent confusion due to time zone crossing. See the EJA396 flight status page for this flight to view local times or setup timezone preferences in your user account.

Time Position Orientation Groundspeed Altitude Reporting Facility
EDT Latitude Longitude Course Direction KTS MPH feet Rate Location/Type
03:54PM 46.2969 -114.0419 106° East 259 298 10,500  Level Salt Lake Center
03:55PM 46.2703 -113.9314 109° East 292 336 14,900 2,829 Climbing Salt Lake Center
03:56PM 46.0822 -113.2799 116° Southeast  Level FlightAware Approximate
03:56PM 46.2261 -113.7964 115° Southeast 364 419 16,300  Level Salt Lake Center
03:57PM 46.0534 -113.1404 102° East  Level FlightAware Approximate
03:57PM 46.1761 -113.6456 116° Southeast 383 441 19,400  Level Salt Lake Center
03:58PM 46.0285 -112.9983 105° East  Level FlightAware Approximate
03:58PM 46.1353 -113.5203 115° Southeast 403 464 21,900  Level Salt Lake Center
03:59PM 46.0015 -112.8571 106° East  Level FlightAware Approximate
03:59PM 46.0731 -113.3350 116° Southeast 428 493 25,000  Level Salt Lake Center
04:00PM 45.9733 -112.7164 106° East  Level FlightAware Approximate
04:00PM 46.0181 -113.1725 116° Southeast 445 512 25,000  Level Salt Lake Center
04:01PM 45.9642 -113.0089 115° Southeast 452 520 25,000  Level Salt Lake Center
04:02PM 45.9097 -112.8472 116° Southeast 452 520 25,000  Level Salt Lake Center
04:03PM 45.8564 -112.6892 116° Southeast 442 509 25,000  Level Salt Lake Center
04:05PM 45.8025 -112.5361 117° Southeast 434 499 25,000  Level Salt Lake Center
04:06PM 45.7514 -112.3803 115° Southeast 434 499 25,000  Level Salt Lake Center
04:07PM 45.6964 -112.2247 117° Southeast 438 504 25,000  Level Salt Lake Center
04:08PM 45.6414 -112.0653 116° Southeast 447 514 25,000  Level Salt Lake Center
04:09PM 45.5753 -111.8767 117° Southeast 446 513 25,000  Level Salt Lake Center
04:10PM 45.5206 -111.7203 116° Southeast 444 511 25,000  Level Salt Lake Center
04:11PM 45.4656 -111.5653 117° Southeast 442 509 25,000  Level Salt Lake Center
04:12PM 45.4108 -111.4092 116° Southeast 444 511 25,000  Level Salt Lake Center
04:13PM 45.3556 -111.2547 117° Southeast 442 509 25,000  Level Salt Lake Center
04:14PM 45.2983 -111.0986 117° Southeast 447 514 25,000  Level Salt Lake Center
04:15PM 45.2436 -110.9444 117° Southeast 443 510 25,000  Level Salt Lake Center
04:16PM 45.1867 -110.7903 118° Southeast 442 509 25,000  Level Salt Lake Center
04:17PM 45.1189 -110.6047 117° Southeast 444 511 25,000 -341 Level Salt Lake Center
04:18PM 45.0606 -110.4481 118° Southeast 442 509 24,300 -1,073 Descending Salt Lake Center
04:19PM 45.0056 -110.3033 118° Southeast 437 503 22,800 -1,475 Descending Salt Lake Center
04:20PM 44.9539 -110.1639 118° Southeast 421 484 21,300 -1,623 Descending Salt Lake Center
04:21PM 44.8964 -110.0069 117° Southeast 405 466 19,500 -1,659 Descending Salt Lake Center
04:22PM 44.8553 -109.8700 113° Southeast 398 458 17,900 -1,659 Descending Salt Lake Center
04:23PM 44.8156 -109.7292 112° Southeast 387 445 16,100 -1,869 Descending Salt Lake Center
04:24PM 44.7733 -109.5847 112° Southeast 363 418 14,100 -1,024 Descending Salt Lake Center
04:25PM 44.7444 -109.4753 110° East 324 373 14,000 -49 Descending Salt Lake Center
04:26PM 44.7153 -109.3628 110° East 318 366 14,000  Level Salt Lake Center
04:27PM 44.6736 -109.2289 114° Southeast 331 381 14,000 -639 Level Salt Lake Center
04:28PM 44.6433 -109.1197 111° Southeast 321 369 12,700 -1,171 Descending Salt Lake Center
04:29PM 44.6108 -109.0167 114° Southeast 312 359 11,600 -1,122 Descending Salt Lake Center
04:30PM 44.5783 -108.9164 114° Southeast 277 319 10,400 -1,033 Descending Salt Lake Center
04:31PM 44.5708 -108.8294 97° East 261 300 9,500 -885 Descending Salt Lake Center